Regional Weather Roundup
Issued by NWS

Home | Current Version | Previous Version | Text Only | Print | Product List | Glossary On
Versions: 1 2 3 4 5 6 7 8 9 10 11 12 13 14 15 16 17 18 19 20 21 22 23 24 25 26 27
000
ASPQ40 PGUM 171312
RWRPQ
WEATHER ROUNDUP FOR THE MARIANAS AND MICRONESIA
NATIONAL WEATHER SERVICE TIYAN GU
1100 PM GSST THU APR 17 2014

GUZ001>004-171400-
MARIANA ISLANDS-

CITY           SKY/WX    TMP DP  RH WIND       PRES   REMARKS
GUAM AIRPORT   CLEAR     81  77  89 E9        29.85S
ANDERSEN AFB   CLOUDY    79  77  94 NE13      29.85S
ROTA AIRPORT   NOT AVBL
TINIAN AP      NOT AVBL
SAIPAN AP      LGT RAIN  79  77  94 E17       29.85S

$$

PMZ161-171400-
REPUBLIC OF PALAU-

CITY           SKY/WX    TMP DP  RH WIND       PRES   REMARKS
KOROR AP       PTCLDY    81  79  94 CALM      29.80S
KOROR WSO      MOCLDY    82  79  89 CALM      29.81S HX  93

$$

PMZ171>174-171400-
FEDERATED STATES OF MICRONESIA-

CITY           SKY/WX    TMP DP  RH WIND       PRES   REMARKS
YAP AIRPORT    NOT AVBL
CHUUK AP       CLOUDY    79  77  94 CALM      29.83F
POHNPEI AP     NOT AVBL
POHNPEI WSO    CLOUDY    77  73  88 SE3       29.89S
KOSRAE AP      NOT AVBL

$$

PMZ181-171400-
REPUBLIC OF THE MARSHALL ISLANDS-

CITY           SKY/WX    TMP DP  RH WIND       PRES   REMARKS
KWAJALEIN AP   MOCLDY    82  73  74 E17       29.84F
MAJURO AP      NOT AVBL
MAJURO WSO     MOCLDY    81  75  83 E9        29.82F

$$




USA.gov is the U.S. government's official web portal to all federal, state and local government web resources and services.